{"data":{"norad_id":48487,"intl_designator":"2021-040BM","name":"STARLINK-2494","alt_names":[],"object_type":"PAYLOAD","status":"ACTIVE","operator":null,"country":"US","launch_date":"2021-05-09","launch_site_code":"AFETR","launch_vehicle":null,"mission":null,"orbit_class":"UNKNOWN","rcs_meters":null,"size_class":null,"mass_kg":null,"dimensions":null,"purposes":["comms"],"wikipedia_slug":null,"has_3d_model":false,"image_url":null,"decayed_at":null,"tle_current":{"epoch":"2026-05-24T12:22:50.177856Z","epoch_age_seconds":127056,"freshness":"FRESH","line1":"1 48487U 21040BM  26144.51585854  .00003848  00000+0  13564-3 0  9990","line2":"2 48487  53.1591 201.3680 0000764  91.3821 268.7268 15.31713843278088","mean_motion":15.31713843,"eccentricity":7.64e-5,"inclination_deg":53.1591,"raan_deg":201.368,"arg_perigee_deg":91.3821,"mean_anomaly_deg":268.7268,"bstar":0.00013564,"rev_number":27808,"period_min":94.012338308547,"perigee_km":470.17547922397,"apogee_km":471.22198132355,"semimajor_km":6848.8357302738,"source":"CELESTRAK","updated_at":"2026-05-25T13:38:16.723875Z"}}}